Location: Rowland
(34.5359°N, 79.2929°W)
Time: 18:29:31
(UTC+00:00)

Transit 2A Rocket - Pass Details

Date: 09 October 2022
Orbit: 589 x 911 km, 66.7° (Epoch: 02 December)

Event Time Altitude Azimuth Distance (km) Brightness Sun altitude
Rises 09:28:53 0° 221° (SW) 2,846 - -23.2°
Reaches altitude 10° 09:31:14 10° 229° (SW) 1,926 - -22.7°
Maximum altitude 09:35:18 42° 300° (WNW) 850 - -21.9°
Exits shadow 09:36:14 36° 333° (NNW) 938 5.3 -21.7°
Drops below altitude 10° 09:39:22 10° 12° (NNE) 1,927 7.3 -21.1°
Sets 09:41:44 0° 20° (NNE) 2,849 8.3 -20.6°
